Retour au catalogue

COSMOS 2499 DEB

ActifPO
NORAD 55718·DEBRIS·🇷🇺 Russia

Lancé May 23, 2014 depuis Plesetsk Cosmodrome

Loading…

Prochains Passages (prochaines 24 heures)

TLE

VieillissantSource: Space-Track

Époque: Sep 4, 2026, 12:46 UTC

1 55718U 14028AE  26247.53241241  .00000974  00000-0  35400-2 0  9998
2 55718  82.3860 188.3900 0198867 173.7369 186.6294 12.86672280105564

Suivez COSMOS 2499 DEB en temps réel avec AllMySat

Download on the App Store